Location: Newark
(17.9939°S, 31.0481°E)
Time: 23:45:40
(UTC+00:00)

Courier 1B - Pass Details

Date: 15 November 2019
Orbit: 963 x 1209 km, 28.3° (Epoch: 15 December)

Event Time Altitude Azimuth Distance (km) Brightness Sun altitude
Exits shadow 02:16:15 12° 325° (NW) 2,773 9.4 -13.1°
Maximum altitude 02:16:21 12° 326° (NW) 2,771 9.4 -13.1°
Drops below altitude 10° 02:18:37 10° 345° (NNW) 2,862 9.6 -12.6°
Sets 02:23:33 0° 16° (NNE) 3,745 10.5 -11.5°
